TimeCDT,TemperatureF,Dew PointF,Humidity,Sea Level PressureIn,VisibilityMPH,Wind Direction,Wind SpeedMPH,Gust SpeedMPH,PrecipitationIn,Events,Conditions,WindDirDegrees,DateUTC
12:56 AM,59.0,42.1,53,29.90,10.0,North,4.6,-,N/A,,Clear,350,2012-10-19 05:56:00
1:56 AM,51.1,44.1,77,29.89,10.0,Calm,Calm,-,N/A,,Clear,0,2012-10-19 06:56:00
2:56 AM,48.9,46.0,90,29.89,10.0,NW,3.5,-,N/A,,Clear,310,2012-10-19 07:56:00
3:56 AM,52.0,44.1,74,29.88,10.0,Calm,Calm,-,N/A,,Clear,0,2012-10-19 08:56:00
4:56 AM,48.9,44.1,83,29.89,10.0,Calm,Calm,-,N/A,,Clear,0,2012-10-19 09:56:00
5:56 AM,48.9,43.0,80,29.90,10.0,NW,3.5,-,N/A,,Clear,310,2012-10-19 10:56:00
6:56 AM,50.0,42.1,74,29.91,10.0,WNW,3.5,-,N/A,,Clear,300,2012-10-19 11:56:00
7:56 AM,55.0,44.1,67,29.92,10.0,NW,3.5,-,N/A,,Clear,310,2012-10-19 12:56:00
8:56 AM,64.0,48.0,56,29.94,10.0,NW,4.6,-,N/A,,Clear,320,2012-10-19 13:56:00
9:56 AM,70.0,42.1,36,29.94,10.0,WNW,5.8,-,N/A,,Clear,290,2012-10-19 14:56:00
10:56 AM,73.9,39.0,28,29.95,10.0,Variable,5.8,-,N/A,,Clear,0,2012-10-19 15:56:00
11:46 AM,75.2,35.6,24,29.94,10.0,West,11.5,17.3,N/A,,Partly Cloudy,280,2012-10-19 16:46:00
11:56 AM,75.2,35.6,24,29.93,10.0,WNW,10.4,-,N/A,,Partly Cloudy,300,2012-10-19 16:56:00
12:56 PM,77.0,35.6,22,29.91,10.0,WSW,11.5,18.4,N/A,,Partly Cloudy,250,2012-10-19 17:56:00
1:56 PM,77.0,30.9,19,29.88,10.0,West,12.7,19.6,N/A,,Clear,260,2012-10-19 18:56:00
2:56 PM,77.0,28.9,17,29.86,10.0,WNW,10.4,-,N/A,,Clear,290,2012-10-19 19:56:00
3:56 PM,77.0,32.0,19,29.85,10.0,West,8.1,-,N/A,,Clear,270,2012-10-19 20:56:00
4:56 PM,75.0,34.0,22,29.85,10.0,West,6.9,16.1,N/A,,Clear,260,2012-10-19 21:56:00
5:56 PM,70.0,37.0,30,29.85,10.0,WSW,3.5,-,N/A,,Clear,250,2012-10-19 22:56:00
6:56 PM,66.0,39.0,37,29.87,10.0,WSW,3.5,-,N/A,,Clear,240,2012-10-19 23:56:00
7:56 PM,61.0,41.0,48,29.89,10.0,Calm,Calm,-,N/A,,Clear,0,2012-10-20 00:56:00
8:56 PM,55.0,44.1,67,29.90,10.0,Calm,Calm,-,N/A,,Clear,0,2012-10-20 01:56:00
9:56 PM,55.0,44.1,67,29.91,10.0,WSW,3.5,-,N/A,,Clear,240,2012-10-20 02:56:00
10:56 PM,54.0,44.1,69,29.92,10.0,Calm,Calm,-,N/A,,Clear,0,2012-10-20 03:56:00
11:56 PM,52.0,43.0,71,29.92,10.0,West,4.6,-,N/A,,Clear,280,2012-10-20 04:56:00